Погода Ремонтное

Погода Ремонтное : погода сейчас, прогноз погоды и архив. Всё, что Вы хотите узнать о погоде Ремонтное!

Поиск расширенной информации на нашем сайте:

Другие новости

Новости СМИ2

Главная страница сайта

Новости сайта

03.07.2017

Напоминаем, что на нашем специализированном сайте Метеоцентр.Азия вы можете получить высокодетализированные автоматические прогнозы погоды по пунктам России, СНГ и мира в авиационном формате (включающие направление и скорость ветра, видимость, явления погоды, количество и форму облачности, нижнюю и верхнюю границу облачности).


Погода Ремонтное - сегодня

Время (UTC), дата Ветер
(°,м/с) 
Видим.   Явления Облачность Т
(°С)
Тd
(°С)
f(%) Тe
(°С)
Pmin
(гПа)
dP
(гПа)
Po
(мм)
O2
(г/м3)
Тmin Tmax R s Состояние
почвы
21 17.04.18 160 (Ю) 10 км    ясно 
+9 +1.8 61 +9  1022.9  0.4  757  295           
00 18.04.18 150 (ЮВ) 10 км    ясно 
+8.1 +1 61 +8  1022.9  -0.1  757  296           
03 18.04.18 130 (ЮВ) 10 км    9/9 600 м 
[Sc]
+7.4 +0.6 62 +7  1023  0.1  757  297  +6.6        сухая 
06 18.04.18 180 (Ю) 10 км    10/5 600 м средняя, верхняя 
[Sc|Ac trans|Ci fib]
+14.2 +1.5 42 +15  1022.7  757  290           
09 18.04.18 200 (Ю) 5{10}  10 км    9/0 верхняя 
[Ci]
+19.3 -0.7 26 +20  1021.2  -1.3  756  285           
12 18.04.18 220 (ЮЗ) 5{10}  10 км    9/0 верхняя 
[Ci fib]
+21.1 +1.4 27 +21  1019.3  -1.7  755  282           
15 18.04.18 190 (Ю) 10 км    10/4 600 м средняя, верхняя 
[Sc|Ac As|Cs]
+18.9 +2.3 33 +20  1017.9  -1.5  754  284    +21.5       
18 18.04.18 200 (Ю) 10 км    10/10 600 м 
[Sc]
+16.5 +1.7 37 +17  1017.2  -0.8  753  286           
21 18.04.18 210 (ЮЗ) 10 км    9/8 600 м средняя 
[Sc|Ac lent]
+15.4 +6.1 54 +16  1015.7  -1.6  752  286           
00 19.04.18 190 (Ю) 10 км    10/10 300 м кучево-дожд. 
[Cb cap]
+12 +6.1 67 +12  1013.5  -2.3  751  289           
03 19.04.18 220 (ЮЗ) 10 км    9/8 600 м средняя 
[Sc|Ac trans]
+11.9 +6.8 71 +12  1011.1  -2.4  749  288  +10.7        сухая 
06 19.04.18 250 (З) 5{10}  10 км    9/0 средняя, верхняя 
[Ac lent|Ci]
+13.2 +8.1 71 +12  1009.6  -1.3  748  286           
09 19.04.18 250 (З) 7-12{12}  10 км    9/8 600 м кучево-дожд., верхняя 
[Cb cap|Ci]
+17.7 +7.1 50 +17  1007.9  -1.6  747  281           
12 19.04.18 280 (З) 6-11{14}  10 км  {ливн. осадки}  9/8 600 м кучево-дожд., верхняя 
[Cb cap|Ci ing]
+18.1 +2 34 +18  1006.2  -1.7  745  281           
15 19.04.18 240 (ЮЗ) 10 км  в посл. час ливневой дождь  10/8 600 м кучево-дожд., верхняя 
[Cb cap|Ci]
+11.5 +8.2 80 +10  1006.1  -0.3  745  287    +18.9  0.8     
18 19.04.18 230 (ЮЗ) 4{13}  4000 м  в посл. час ливневой дождь  10/5 600 м средняя, верхняя 
[Sc diur, vesp|Ac trans|Ci fib]
+10 +7.5 84 +9  1005.6  -0.6  745  288           
21 19.04.18 230 (ЮЗ) 4{10}  4000 м  дымка  1/1 600 м 
[Sc diur, vesp]
+9.1 +6.9 86 +8  1003.7  -1.9  743  289           
00 20.04.18 250 (З) 4000 м  дымка  10/10 600 м 
[Sc diur, vesp]
+9.5 +7.1 85 +8  1001.8  -1.9  742  288           
03 20.04.18 250 (З) 4000 м  дымка  10/10 300 м кучево-дожд. 
[Cb cap]
+9 +7 87 +8  1001  -0.7  741  288  +9    0.3     
06 20.04.18 250 (З) 5-11  4000 м  слаб. ливневой дождь  10/10 300 м кучево-дожд. 
[Cb cap]
+9.6 +7.5 87 +8  1001.2  0.2  741  287  +8.8         
09 20.04.18 250 (З) 5{14}  10 км  в посл. час ливневой дождь  10/10 300 м кучево-дожд. 
[Cb cap]
+10.1 +6.8 80 +9  1002.1  0.9  742  287           
12 20.04.18 270 (З) 6-11{13}  10 км  в посл. час ливневой дождь  9/8 300 м кучево-дожд., средняя, верхняя 
[Cb cap|Ac cuf|Ci fib]
+11.5 +6 69 +10  1002.7  0.6  743  286           
15 20.04.18 280 (З) 10 км  в посл. час ливневой дождь  9/4 600 м кучево-дожд., средняя, верхняя 
[Cb cap|Ac trans|Ci fib]
+10.2 +6 75 +9  1004.1  1.3  743  288    +12.5     
18 20.04.18 270 (З) 4000 м  дымка{ливн. осадки}  4/0 верхняя 
[Cs]
+8.1 +6.2 88 +7  1006  1.8  745  290           
21 20.04.18 280 (З) 4000 м  слаб. ливневой дождь  10/10 300 м кучево-дожд. 
[Cb cap]
+9.1 +7.4 89 +8  1006.8  0.9  746  289           
Время (UTC), дата Ветер
(°,м/с) 
Видим.   Явления Облачность Т
(°С)
Тd
(°С)
f(%) Тe
(°С)
Pmin
(гПа)
dP
(гПа)
Po
(мм)
O2
(г/м3)
Тmin Tmax R s Состояние
почвы

Для получения пояснительной информации подведите курсор к названию столбца.

ПОГОДА Ремонтное - архив

Всё, что Вы хотите узнать о погоде Ремонтное - удобно и подробно!

Выберите нужную дату (начиная с 1 января 2015* года) и нажмите кнопку "Найти".
Будут отображены архивные сводки погоды по пункту Ремонтное, начиная с указанной даты.


Отображать данные в формате CSV (для использования в таблицах Excel)


Внимание! Наш архив погоды предназначен исключительно для личного некоммерческого использования в познавательных целях. Если Вам необходимы официальные справки о состоянии погоды (для производственных, юридических, коммерческих и т.п. целей), обращайтесь в органы Росгидромета.

*Примечание: данная дата относится к архиву по метеостанциям СССР (Россия, СНГ, Балтия).
Архив по метеостанциям Зарубежной Европы и Азии (кроме Китая) хранится 10 дней, по другим регионам земного шара (Китай, Африка, Америка, Австралия, Океания) - 1 день.

Ремонтное - район местоположения метеостанции


Название, широта, долгота, высота метеостанции:
Ремонтное 46.6°ш. 43.7°д. 106 м над ур. моря [Российская Федерация]

Дополнительная информация

В oтличие oт бoльшинства пoгoдных сайтoв мы публикуем пoдрoбную метеoинфoрмацию в детальнoм прoфессиoнальнoм фoрмате.

Характеристики температуры и влажнoсти вoздуха измеряются на высoте 2 м в тени вдали oт зданий и деревьев.
Скoрoсть ветра измеряется на высoте 10 м (на урoвне рoста челoвека скoрoсть ветра ниже в 1.5-2 раза). Если метеoстанция нахoдится в гoрoде или в лесу, тo скoрoсть ветра занижена на 2-4 м/с пo сравнению с oткрытым местoм. Скoрoсть ветра над акватoриями крупных рек и oзёр, а также на вершинах хoлмoв на 2-5 м/с выше, чем в oбычных услoвиях.
Атмoсфернoе давление в разных тoчках местнoсти мoжет значительнo oтличаться oт давления на метеoстанции, в зависимoсти oт услoвий рельефа (при пoдъёме на 10 м давление пoнижается примернo на 1 мм рт.ст.).